Regional Weather Roundup
Issued by NWS Jackson, KY

Home | Current Version | Previous Version | Graphics & Text | Print | Product List | Glossary On
Versions: 1 2 3 4 5 6 7 8 9 10 11 12 13 14 15 16 17 18 19 20 21 22 23 24 25 26 27 28 29 30 31 32 33 34 35 36 37 38 39 40 41 42 43 44 45 46 47 48 49 50
000
ASUS43 KJKL 222111
RWRJKL

EAST KENTUCKY HOURLY WEATHER ROUNDUP
NATIONAL WEATHER SERVICE JACKSON KY
500 PM EDT WED OCT 22 2014

NOTE: "FAIR" INDICATES FEW OR NO CLOUDS BELOW 12,000 FEET WITH
NO SIGNIFICANT WEATHER AND/OR OBSTRUCTIONS TO VISIBILITY.

* THESE REPORTS ARE NOT UNDER NWS QUALITY CONTROL AND MAY NOT
  REPORT WEATHER SUCH AS PRECIPITATION AND FOG.

KYZ079-080-083-085-087-088-110-112-115-119-120-222200
...EASTERN KENTUCKY...

CITY           SKY/WX    TMP DP  RH WIND       PRES   REMARKS
JACKSON        CLOUDY    50  40  68 CALM      30.23S
LONDON         CLOUDY    50  40  68 N3        30.24F
SOMERSET*      CLOUDY    50  39  66 NE7       30.26S
MONTICELLO*    SUNNY     56  42  59 NE8       30.25S
WILLIAMSBURG*  CLOUDY    48  41  76 CALM      30.25
MIDDLESBORO*   CLOUDY    50  40  68 N3        30.24S
HARLAN APT*    CLOUDY    46  37  71 NE6       30.23S
HAZARD APT*    CLOUDY    50  43  76 CALM      30.24
BLACK MTN*       N/A     36  36 100 VRB9        N/A  WCI  29
PIKEVILLE APT* CLOUDY    46  43  87 CALM      30.22S
BIG SANDY*     CLOUDY    49  43  78 CALM      30.22F
MOREHEAD APT*  CLOUDY    52  41  66 N8        30.26S
$$

KYZ035-036-041-042-044-050-067-078-099-222200
...CENTRAL KENTUCKY...

CITY           SKY/WX    TMP DP  RH WIND       PRES   REMARKS
MT STERLING*   CLOUDY    52  43  71 NE3       30.26S
FLEMING/MASON* CLOUDY    50  41  71 N8        30.26S
DANVILLE*      CLOUDY    50  41  71 SE3       30.26F
RICHMOND*      CLOUDY    50  41  71 CALM      30.25S
LEXINGTON      CLOUDY    56  42  59 NE8       30.25S
FRANKFORT      MOSUNNY   57  39  51 N7        30.23F
$$

KYZ091>093-OHZ055-061-077-WVZ005-015-034-035-042-222200
...SOUTHERN OHIO/WEST VIRGINIA...

CITY           SKY/WX    TMP DP  RH WIND       PRES   REMARKS
COVINGTON      CLOUDY    53  39  59 NE8       30.26F
COLUMBUS       CLOUDY    50  41  71 N9        30.25S
DAYTON         CLOUDY    51  41  68 N8        30.29R
WILMINGTON     CLOUDY    50  41  71 N10       30.26R
HUNTINGTON     CLOUDY    51  43  74 N6        30.22S
CHARLESTON     CLOUDY    51  43  74 NW7       30.20R
PINEVILLE*     CLOUDY    48  47  98 MISG      30.23S
BECKLEY        CLOUDY    44  41  89 NW7       30.16S
BLUEFIELD      CLOUDY    44  40  85 NW7       30.16R
$$

VAZ002-007-008-TNZ017-027-036-066-071-222200
...SOUTHWEST VIRGINIA/EAST TENNESSEE...

CITY           SKY/WX    TMP DP  RH WIND       PRES   REMARKS
WISE*          CLOUDY    43  43 100 N6        30.21R
JONESVILLE*    MOCLDY    48  41  76 CALM      30.25S
ABINGDON*      CLOUDY    48  41  78 N7        30.19R
BRISTOL        CLOUDY    50  40  68 N5        30.20S
KNOXVILLE      MOSUNNY   60  40  47 E7        30.16S
OAK RIDGE      SUNNY     62  41  46 VRB6      30.19R
CROSSVILLE     SUNNY     59  38  45 NE12      30.18F
NASHVILLE      SUNNY     63  41  44 NE9       30.20F
$$

...KEY TO REMARKS...
VSB - VISIBILITY IN MILES
WCI - WIND CHILL INDEX
HX  - HEAT INDEX

$$



USA.gov is the U.S. government's official web portal to all federal, state and local government web resources and services.